This is the latest recevied weather packets stored in our database for station/object IZ2PAG-10. If no packets are shown the sender has not sent any weather packets the latest 10 day(s).
| Time | Temp. | Humidity | Pressure | Rain* | Wind** | Luminosity | Snow |
|---|---|---|---|---|---|---|---|
| 1777476493 | 20° C | 42% | 1017.2 hPa | - | - | - | - |
| 1777474693 | 20° C | 46% | 1017.2 hPa | - | - | - | - |
| 1777472893 | 19.44° C | 46% | 1017.2 hPa | - | - | - | - |
| 1777471093 | 20° C | 45% | 1017.3 hPa | - | - | - | - |
| 1777469433 | 20° C | 44% | 1017.3 hPa | - | - | - | - |
| 1777469292 | 20° C | 44% | 1017.3 hPa | - | - | - | - |
| 1777467493 | 20° C | 45% | 1017.3 hPa | - | - | - | - |
| 1777465692 | 20° C | 44% | 1017.3 hPa | - | - | - | - |
| 1777463892 | 20° C | 43% | 1017.4 hPa | - | - | - | - |
| 1777462130 | 20° C | 44% | 1017.6 hPa | - | - | - | - |
| 1777462092 | 20° C | 44% | 1017.6 hPa | - | - | - | - |
| 1777460291 | 20° C | 43% | 1017.7 hPa | - | - | - | - |
| 1777458491 | 20° C | 43% | 1017.9 hPa | - | - | - | - |
| 1777456691 | 20° C | 42% | 1017.7 hPa | - | - | - | - |
| 1777454891 | 20° C | 43% | 1017.8 hPa | - | - | - | - |
| 1777453091 | 20° C | 45% | 1017.8 hPa | - | - | - | - |
| 1777451441 | 20° C | 46% | 1017.7 hPa | - | - | - | - |
| 1777451290 | 20° C | 46% | 1017.7 hPa | - | - | - | - |
| 1777449490 | 20° C | 44% | 1017.7 hPa | - | - | - | - |
| 1777447689 | 20° C | 45% | 1017.5 hPa | - | - | - | - |
| 1777445889 | 20° C | 44% | 1017.4 hPa | - | - | - | - |
| 1777444121 | 20° C | 43% | 1017.2 hPa | - | - | - | - |
| 1777444089 | 20° C | 43% | 1017.2 hPa | - | - | - | - |
| 1777442323 | 20° C | 42% | 1017.3 hPa | - | - | - | - |
| 1777442289 | 20° C | 42% | 1017.3 hPa | - | - | - | - |
* Rain since midnight (hover to see other rain measurements)
** Current wind speed in m/s (hover to see current wind gust speed)